START_TIME,STEP,MOV.,M35,t_acc.,PL05,t_acc.,PL06,t_acc.,PL07,t_acc.
1980-11-14 03:00:12.460 ,4,0,0.,4.8,0.,4.8,0.,4.8,0.,4.8
1980-11-14 03:00:17.260 ,4,0,0.,4.8,0.,4.8,0.,4.8,0.,4.8
1980-11-14 03:00:22.060 ,4,0,0.,4.8,0.,4.8,0.,4.8,0.,4.8
1980-11-14 03:00:26.860 ,4,0,0.,4.8,2.,4.8,0.,4.8,0.,4.8
1980-11-14 03:00:31.660 ,4,0,0.,4.8,0.,4.8,0.,4.8,0.,4.8
1980-11-14 03:00:36.460 ,5,0,0.,4.8,1.,4.8,0.,4.8,0.,4.8
1980-11-14 03:00:41.260 ,5,0,0.,4.8,0.,4.8,0.,4.8,0.,4.8
1980-11-14 03:00:46.060 ,5,0,0.,4.8,1.,4.8,0.,4.8,0.,4.8
1980-11-14 03:00:50.860 ,5,0,0.,4.8,0.,4.8,1.,4.8,0.,4.8
1980-11-14 03:00:55.660 ,5,0,0.,4.8,0.,4.8,1.,4.8,0.,4.8
1980-11-14 03:01:00.460 ,5,0,0.,4.8,1.,4.8,1.,4.8,0.,4.8
1980-11-14 03:01:05.260 ,5,0,0.,4.8,0.,4.8,0.,4.8,1.,4.8
1980-11-14 03:01:10.060 ,5,0,0.,4.8,0.,4.8,0.,4.8,0.,4.8
1980-11-14 03:01:14.860 ,5,0,0.,4.8,0.,4.8,0.,4.8,0.,4.8
1980-11-14 03:01:19.660 ,5,0,0.,4.8,1.,4.8,0.,4.8,0.,4.8
1980-11-14 03:01:24.460 ,6,0,0.,4.8,1.,4.8,0.,4.8,0.,4.8
1980-11-14 03:01:29.260 ,6,0,0.,4.8,0.,4.8,0.,4.8,0.,4.8
1980-11-14 03:01:34.060 ,6,0,0.,4.8,1.,4.8,0.,4.8,0.,4.8
1980-11-14 03:01:38.860 ,6,0,0.,4.8,0.,4.8,0.,4.8,0.,4.8
1980-11-14 03:01:43.660 ,6,0,0.,4.8,0.,4.8,0.,4.8,0.,4.8
1980-11-14 03:01:48.460 ,6,0,0.,4.8,0.,4.8,0.,4.8,0.,4.8
1980-11-14 03:01:53.260 ,6,0,0.,4.8,0.,4.8,0.,4.8,0.,4.8
1980-11-14 03:01:58.060 ,6,0,0.,4.8,1.,4.8,0.,4.8,0.,4.8
1980-11-14 03:02:02.860 ,6,0,0.,4.8,2.,4.8,0.,4.8,0.,4.8
1980-11-14 03:02:07.660 ,6,0,0.,4.8,1.,4.8,0.,4.8,0.,4.8
1980-11-14 03:02:12.460 ,7,0,0.,4.8,0.,4.8,0.,4.8,1.,4.8
1980-11-14 03:02:17.260 ,7,0,0.,4.8,0.,4.8,0.,4.8,0.,4.8
1980-11-14 03:02:22.060 ,7,0,0.,4.8,0.,4.8,0.,4.8,0.,4.8
1980-11-14 03:02:26.860 ,7,0,0.,4.8,1.,4.8,0.,4.8,0.,4.8
1980-11-14 03:02:31.660 ,7,0,0.,4.8,0.,4.8,1.,4.8,1.,4.8
1980-11-14 03:02:36.460 ,7,0,0.,4.8,0.,4.8,1.,4.8,0.,4.8
1980-11-14 03:02:41.260 ,7,0,0.,4.8,0.,4.8,1.,4.8,0.,4.8
1980-11-14 03:02:46.060 ,7,0,0.,4.8,0.,4.8,0.,4.8,1.,4.8
1980-11-14 03:02:50.860 ,7,0,0.,4.8,0.,4.8,0.,4.8,0.,4.8
1980-11-14 03:02:55.660 ,7,0,0.,4.8,0.,4.8,1.,4.8,0.,4.8
1980-11-14 03:03:00.460 ,7,0,0.,4.8,0.,4.8,1.,4.8,2.,4.8
1980-11-14 03:03:05.260 ,7,0,0.,4.8,1.,4.8,1.,4.8,0.,4.8
1980-11-14 03:03:10.060 ,7,0,0.,4.8,0.,4.8,0.,4.8,1.,4.8
1980-11-14 03:03:14.860 ,7,0,0.,4.8,0.,4.8,0.,4.8,0.,4.8
1980-11-14 03:03:19.660 ,7,0,0.,4.8,0.,4.8,0.,4.8,1.,4.8
1980-11-14 03:03:24.460 ,7,0,0.,4.8,0.,4.8,1.,4.8,1.,4.8
1980-11-14 03:03:29.260 ,7,0,0.,4.8,1.,4.8,2.,4.8,1.,4.8
1980-11-14 03:03:34.060 ,7,0,0.,4.8,0.,4.8,0.,4.8,0.,4.8
1980-11-14 03:03:38.860 ,7,0,0.,4.8,1.,4.8,0.,4.8,1.,4.8
1980-11-14 03:03:43.660 ,7,0,0.,4.8,0.,4.8,1.,4.8,0.,4.8
1980-11-14 03:03:48.460 ,6,0,0.,4.8,0.,4.8,0.,4.8,0.,4.8
1980-11-14 03:03:53.260 ,6,0,0.,4.8,0.,4.8,1.,4.8,0.,4.8
1980-11-14 03:03:58.060 ,6,0,0.,4.8,2.,4.8,0.,4.8,0.,4.8
1980-11-14 03:04:02.860 ,6,0,0.,4.8,2.,4.8,0.,4.8,0.,4.8
1980-11-14 03:04:07.660 ,6,0,0.,4.8,1.,4.8,0.,4.8,0.,4.8
1980-11-14 03:04:12.460 ,0,0,0.,4.8,0.,4.8,0.,4.8,0.,4.8
1980-11-14 03:04:17.260 ,0,0,0.,4.8,0.,4.8,0.,4.8,0.,4.8
1980-11-14 03:04:22.060 ,0,0,0.,4.8,1.,4.8,0.,4.8,0.,4.8
1980-11-14 03:04:26.860 ,0,0,0.,4.8,2.,4.8,0.,4.8,0.,4.8
1980-11-14 03:04:31.660 ,0,0,0.,4.8,1.,4.8,0.,4.8,0.,4.8
1980-11-14 03:07:00.460 ,0,0,0.,4.8,1.,4.8,0.,4.8,0.,4.8
1980-11-14 03:07:05.260 ,0,0,0.,4.8,1.,4.8,0.,4.8,0.,4.8
1980-11-14 03:07:10.060 ,0,0,0.,4.8,0.,4.8,0.,4.8,0.,4.8
1980-11-14 03:07:14.860 ,0,0,0.,4.8,1.,4.8,0.,4.8,0.,4.8
1980-11-14 03:07:19.660 ,0,0,0.,4.8,0.,4.8,0.,4.8,0.,4.8
1980-11-14 03:07:24.460 ,0,0,0.,4.8,1.,4.8,0.,4.8,0.,4.8
1980-11-14 03:07:29.260 ,0,0,0.,4.8,1.,4.8,0.,4.8,0.,4.8
1980-11-14 03:07:34.060 ,0,0,0.,4.8,1.,4.8,0.,4.8,0.,4.8
1980-11-14 03:07:38.860 ,0,0,0.,4.8,0.,4.8,0.,4.8,0.,4.8
1980-11-14 03:07:43.660 ,0,0,0.,4.8,0.,4.8,0.,4.8,0.,4.8
1980-11-14 03:07:48.460 ,1,0,0.,4.8,0.,4.8,0.,4.8,0.,4.8
1980-11-14 03:07:53.260 ,1,0,0.,4.8,1.,4.8,1.,4.8,0.,4.8
1980-11-14 03:07:58.060 ,1,0,0.,4.8,0.,4.8,0.,4.8,0.,4.8
1980-11-14 03:08:02.860 ,1,0,0.,4.8,0.,4.8,0.,4.8,0.,4.8
1980-11-14 03:08:07.660 ,1,0,0.,4.8,0.,4.8,0.,4.8,0.,4.8
1980-11-14 03:08:12.460 ,1,0,0.,4.8,0.,4.8,0.,4.8,0.,4.8
1980-11-14 03:08:17.260 ,1,0,0.,4.8,0.,4.8,0.,4.8,0.,4.8
1980-11-14 03:08:22.060 ,1,0,0.,4.8,0.,4.8,0.,4.8,0.,4.8
1980-11-14 03:08:26.860 ,1,0,0.,4.8,0.,4.8,0.,4.8,0.,4.8
1980-11-14 03:08:31.660 ,1,0,0.,4.8,0.,4.8,0.,4.8,0.,4.8
1980-11-14 03:08:36.460 ,0,0,0.,4.8,1.,4.8,0.,4.8,0.,4.8
1980-11-14 03:08:41.260 ,0,0,0.,4.8,1.,4.8,0.,4.8,0.,4.8
1980-11-14 03:08:46.060 ,0,0,0.,4.8,0.,4.8,0.,4.8,0.,4.8
1980-11-14 03:08:50.860 ,0,0,0.,4.8,0.,4.8,0.,4.8,0.,4.8
1980-11-14 03:08:55.660 ,0,0,0.,4.8,0.,4.8,0.,4.8,0.,4.8
1980-11-14 03:09:00.460 ,0,0,0.,4.8,2.,4.8,1.,4.8,0.,4.8
1980-11-14 03:09:05.260 ,0,0,0.,4.8,0.,4.8,1.,4.8,0.,4.8
1980-11-14 03:09:10.060 ,0,0,0.,4.8,0.,4.8,0.,4.8,0.,4.8
1980-11-14 03:09:14.860 ,0,0,0.,4.8,0.,4.8,0.,4.8,0.,4.8
1980-11-14 03:09:19.660 ,0,0,0.,4.8,1.,4.8,1.,4.8,0.,4.8
1980-11-14 03:09:24.460 ,0,0,0.,4.8,0.,4.8,0.,4.8,0.,4.8
1980-11-14 03:09:29.260 ,0,0,0.,4.8,1.,4.8,0.,4.8,0.,4.8
1980-11-14 03:09:34.060 ,0,0,0.,4.8,1.,4.8,1.,4.8,0.,4.8
1980-11-14 03:09:38.860 ,0,0,0.,4.8,1.,4.8,0.,4.8,0.,4.8
1980-11-14 03:09:43.660 ,0,0,0.,4.8,0.,4.8,0.,4.8,0.,4.8
1980-11-14 03:09:48.460 ,0,0,0.,4.8,1.,4.8,0.,4.8,0.,4.8
1980-11-14 03:09:53.260 ,0,0,0.,4.8,0.,4.8,0.,4.8,0.,4.8
1980-11-14 03:09:58.060 ,0,0,0.,4.8,1.,4.8,0.,4.8,0.,4.8
1980-11-14 03:10:02.860 ,0,0,0.,4.8,0.,4.8,0.,4.8,0.,4.8
1980-11-14 03:10:07.660 ,0,0,0.,4.8,0.,4.8,1.,4.8,1.,4.8
1980-11-14 03:10:12.460 ,1,0,0.,4.8,0.,4.8,0.,4.8,0.,4.8
1980-11-14 03:10:17.260 ,1,0,0.,4.8,1.,4.8,0.,4.8,0.,4.8
1980-11-14 03:10:22.060 ,1,0,0.,4.8,0.,4.8,0.,4.8,1.,4.8
1980-11-14 03:10:26.860 ,1,0,0.,4.8,1.,4.8,0.,4.8,1.,4.8
1980-11-14 03:10:31.660 ,1,0,0.,4.8,0.,4.8,0.,4.8,0.,4.8
1980-11-14 03:10:36.460 ,1,0,0.,4.8,0.,4.8,0.,4.8,0.,4.8
1980-11-14 03:10:41.260 ,1,0,0.,4.8,1.,4.8,1.,4.8,0.,4.8
1980-11-14 03:10:46.060 ,1,0,0.,4.8,1.,4.8,0.,4.8,0.,4.8
1980-11-14 03:10:50.860 ,1,0,0.,4.8,0.,4.8,0.,4.8,0.,4.8
1980-11-14 03:10:55.660 ,1,0,0.,4.8,0.,4.8,0.,4.8,0.,4.8
1980-11-14 03:11:00.460 ,2,0,0.,4.8,0.,4.8,0.,4.8,0.,4.8
1980-11-14 03:11:05.260 ,2,0,0.,4.8,1.,4.8,1.,4.8,0.,4.8
1980-11-14 03:11:10.060 ,2,0,0.,4.8,2.,4.8,0.,4.8,0.,4.8
1980-11-14 03:11:14.860 ,2,0,0.,4.8,0.,4.8,0.,4.8,0.,4.8
1980-11-14 03:11:19.660 ,2,0,0.,4.8,1.,4.8,0.,4.8,0.,4.8
1980-11-14 03:11:24.460 ,2,0,0.,4.8,0.,4.8,1.,4.8,0.,4.8
1980-11-14 03:11:29.260 ,2,0,0.,4.8,0.,4.8,0.,4.8,0.,4.8
1980-11-14 03:11:34.060 ,2,0,0.,4.8,1.,4.8,0.,4.8,0.,4.8
1980-11-14 03:11:38.860 ,2,0,0.,4.8,1.,4.8,1.,4.8,0.,4.8
1980-11-14 03:11:43.660 ,2,0,0.,4.8,0.,4.8,0.,4.8,0.,4.8
1980-11-14 03:11:48.460 ,3,0,0.,4.8,0.,4.8,0.,4.8,0.,4.8
1980-11-14 03:11:53.260 ,3,0,0.,4.8,1.,4.8,0.,4.8,0.,4.8
1980-11-14 03:11:58.060 ,3,0,0.,4.8,0.,4.8,0.,4.8,0.,4.8
1980-11-14 03:12:02.860 ,3,0,0.,4.8,0.,4.8,0.,4.8,0.,4.8
1980-11-14 03:12:07.660 ,3,0,0.,4.8,0.,4.8,0.,4.8,0.,4.8
1980-11-14 03:12:12.460 ,3,0,0.,4.8,1.,4.8,0.,4.8,0.,4.8
1980-11-14 03:12:17.260 ,3,0,0.,4.8,0.,4.8,0.,4.8,0.,4.8
1980-11-14 03:12:22.060 ,3,0,0.,4.8,1.,4.8,0.,4.8,0.,4.8
1980-11-14 03:12:26.860 ,3,0,0.,4.8,0.,4.8,0.,4.8,1.,4.8
1980-11-14 03:12:31.660 ,3,0,0.,4.8,1.,4.8,0.,4.8,0.,4.8
1980-11-14 03:12:36.460 ,4,0,0.,4.8,1.,4.8,0.,4.8,0.,4.8
1980-11-14 03:12:41.260 ,4,0,0.,4.8,0.,4.8,0.,4.8,0.,4.8
1980-11-14 03:12:46.060 ,4,0,0.,4.8,0.,4.8,0.,4.8,0.,4.8
1980-11-14 03:12:50.860 ,4,0,0.,4.8,0.,4.8,0.,4.8,0.,4.8
1980-11-14 03:12:55.660 ,4,0,0.,4.8,0.,4.8,0.,4.8,0.,4.8
1980-11-14 03:13:00.460 ,4,0,0.,4.8,0.,4.8,0.,4.8,0.,4.8
1980-11-14 03:13:05.260 ,4,0,0.,4.8,0.,4.8,0.,4.8,0.,4.8
1980-11-14 03:13:10.060 ,4,0,0.,4.8,0.,4.8,0.,4.8,0.,4.8
1980-11-14 03:13:14.860 ,4,0,0.,4.8,1.,4.8,0.,4.8,0.,4.8
1980-11-14 03:13:19.660 ,4,0,0.,4.8,0.,4.8,1.,4.8,0.,4.8
1980-11-14 03:13:24.460 ,5,0,0.,4.8,1.,4.8,0.,4.8,0.,4.8
1980-11-14 03:13:29.260 ,5,0,0.,4.8,0.,4.8,1.,4.8,0.,4.8
1980-11-14 03:13:34.060 ,5,0,0.,4.8,0.,4.8,0.,4.8,0.,4.8
1980-11-14 03:13:38.860 ,5,0,0.,4.8,1.,4.8,1.,4.8,0.,4.8
1980-11-14 03:13:43.660 ,5,0,0.,4.8,0.,4.8,0.,4.8,0.,4.8
1980-11-14 03:13:48.460 ,5,0,0.,4.8,1.,4.8,0.,4.8,0.,4.8
1980-11-14 03:13:53.260 ,5,0,0.,4.8,1.,4.8,1.,4.8,0.,4.8
1980-11-14 03:13:58.060 ,5,0,0.,4.8,0.,4.8,0.,4.8,0.,4.8
1980-11-14 03:14:02.860 ,5,0,0.,4.8,0.,4.8,0.,4.8,0.,4.8
1980-11-14 03:14:07.660 ,5,0,0.,4.8,0.,4.8,1.,4.8,0.,4.8
1980-11-14 03:14:12.460 ,6,0,0.,4.8,0.,4.8,0.,4.8,0.,4.8
1980-11-14 03:14:17.260 ,6,0,0.,4.8,2.,4.8,0.,4.8,0.,4.8
1980-11-14 03:14:22.060 ,6,0,0.,4.8,0.,4.8,0.,4.8,1.,4.8
1980-11-14 03:14:26.860 ,6,0,0.,4.8,0.,4.8,0.,4.8,0.,4.8
1980-11-14 03:14:31.660 ,6,0,0.,4.8,0.,4.8,0.,4.8,0.,4.8
1980-11-14 03:14:36.460 ,6,0,0.,4.8,0.,4.8,0.,4.8,0.,4.8
1980-11-14 03:14:41.260 ,6,0,0.,4.8,1.,4.8,0.,4.8,0.,4.8
1980-11-14 03:14:46.060 ,6,0,0.,4.8,0.,4.8,0.,4.8,0.,4.8
1980-11-14 03:14:50.860 ,6,0,0.,4.8,1.,4.8,0.,4.8,0.,4.8
1980-11-14 03:14:55.660 ,6,0,0.,4.8,1.,4.8,0.,4.8,0.,4.8
1980-11-14 03:15:00.460 ,7,0,0.,4.8,0.,4.8,0.,4.8,0.,4.8
1980-11-14 03:15:05.260 ,7,0,0.,4.8,0.,4.8,0.,4.8,1.,4.8
1980-11-14 03:15:10.060 ,7,0,0.,4.8,0.,4.8,0.,4.8,3.,4.8
1980-11-14 03:15:14.860 ,7,0,0.,4.8,0.,4.8,1.,4.8,0.,4.8
1980-11-14 03:15:19.660 ,7,0,0.,4.8,0.,4.8,1.,4.8,1.,4.8
1980-11-14 03:15:24.460 ,7,0,0.,4.8,1.,4.8,0.,4.8,1.,4.8
1980-11-14 03:15:29.260 ,7,0,0.,4.8,0.,4.8,1.,4.8,1.,4.8
1980-11-14 03:15:34.060 ,7,0,0.,4.8,0.,4.8,0.,4.8,0.,4.8
1980-11-14 03:15:38.860 ,7,0,0.,4.8,0.,4.8,1.,4.8,2.,4.8
1980-11-14 03:15:43.660 ,7,0,0.,4.8,0.,4.8,0.,4.8,0.,4.8
1980-11-14 03:15:48.460 ,7,0,0.,4.8,0.,4.8,0.,4.8,0.,4.8
1980-11-14 03:15:53.260 ,7,0,0.,4.8,0.,4.8,0.,4.8,1.,4.8
1980-11-14 03:15:58.060 ,7,0,0.,4.8,0.,4.8,0.,4.8,0.,4.8
1980-11-14 03:16:02.860 ,7,0,0.,4.8,1.,4.8,1.,4.8,0.,4.8
1980-11-14 03:16:07.660 ,7,0,0.,4.8,0.,4.8,2.,4.8,0.,4.8
1980-11-14 03:16:12.460 ,7,0,0.,4.8,0.,4.8,0.,4.8,0.,4.8
1980-11-14 03:16:17.260 ,7,0,0.,4.8,0.,4.8,0.,4.8,1.,4.8
1980-11-14 03:16:22.060 ,7,0,0.,4.8,0.,4.8,1.,4.8,1.,4.8
1980-11-14 03:16:26.860 ,7,0,0.,4.8,0.,4.8,0.,4.8,0.,4.8
1980-11-14 03:16:31.660 ,7,0,0.,4.8,0.,4.8,0.,4.8,1.,4.8
1980-11-14 03:16:36.460 ,6,0,0.,4.8,0.,4.8,0.,4.8,0.,4.8
1980-11-14 03:16:41.260 ,6,0,0.,4.8,2.,4.8,0.,4.8,0.,4.8
1980-11-14 03:16:46.060 ,6,0,0.,4.8,1.,4.8,0.,4.8,0.,4.8
1980-11-14 03:16:50.860 ,6,0,0.,4.8,1.,4.8,0.,4.8,0.,4.8
1980-11-14 03:16:55.660 ,6,0,0.,4.8,1.,4.8,0.,4.8,0.,4.8
1980-11-14 03:17:00.460 ,6,0,0.,4.8,0.,4.8,0.,4.8,0.,4.8
1980-11-14 03:17:05.260 ,6,0,0.,4.8,1.,4.8,0.,4.8,0.,4.8
1980-11-14 03:17:10.060 ,6,0,0.,4.8,0.,4.8,0.,4.8,1.,4.8
1980-11-14 03:17:14.860 ,6,0,0.,4.8,0.,4.8,0.,4.8,0.,4.8
1980-11-14 03:17:19.660 ,6,0,0.,4.8,1.,4.8,0.,4.8,0.,4.8
1980-11-14 03:17:24.460 ,5,0,0.,4.8,0.,4.8,0.,4.8,0.,4.8
1980-11-14 03:17:29.260 ,5,0,0.,4.8,1.,4.8,0.,4.8,0.,4.8
1980-11-14 03:17:34.060 ,5,0,0.,4.8,0.,4.8,0.,4.8,0.,4.8
1980-11-14 03:17:38.860 ,5,0,0.,4.8,0.,4.8,0.,4.8,0.,4.8
1980-11-14 03:17:43.660 ,5,0,0.,4.8,2.,4.8,0.,4.8,0.,4.8
1980-11-14 03:17:48.460 ,5,0,0.,4.8,0.,4.8,0.,4.8,0.,4.8
1980-11-14 03:17:53.260 ,5,0,0.,4.8,0.,4.8,0.,4.8,0.,4.8
1980-11-14 03:17:58.060 ,5,0,0.,4.8,0.,4.8,0.,4.8,0.,4.8
1980-11-14 03:18:02.860 ,5,0,0.,4.8,0.,4.8,0.,4.8,0.,4.8
1980-11-14 03:18:07.660 ,5,0,0.,4.8,2.,4.8,1.,4.8,0.,4.8
1980-11-14 03:18:12.460 ,4,0,0.,4.8,1.,4.8,0.,4.8,0.,4.8
1980-11-14 03:18:17.260 ,4,0,0.,4.8,1.,4.8,0.,4.8,0.,4.8
1980-11-14 03:18:22.060 ,4,0,0.,4.8,0.,4.8,0.,4.8,0.,4.8
1980-11-14 03:18:26.860 ,4,0,0.,4.8,0.,4.8,1.,4.8,0.,4.8
1980-11-14 03:18:31.660 ,4,0,0.,4.8,1.,4.8,0.,4.8,0.,4.8
1980-11-14 03:18:36.460 ,4,0,0.,4.8,0.,4.8,0.,4.8,0.,4.8
1980-11-14 03:18:41.260 ,4,0,0.,4.8,0.,4.8,0.,4.8,0.,4.8
1980-11-14 03:18:46.060 ,4,0,0.,4.8,0.,4.8,0.,4.8,0.,4.8
1980-11-14 03:18:50.860 ,4,0,0.,4.8,0.,4.8,0.,4.8,0.,4.8
1980-11-14 03:18:55.660 ,4,0,0.,4.8,0.,4.8,0.,4.8,0.,4.8
1980-11-14 03:19:00.460 ,3,0,0.,4.8,0.,4.8,0.,4.8,0.,4.8
1980-11-14 03:19:05.260 ,3,0,0.,4.8,0.,4.8,1.,4.8,1.,4.8
1980-11-14 03:19:10.060 ,3,0,0.,4.8,0.,4.8,0.,4.8,0.,4.8
1980-11-14 03:19:14.860 ,3,0,0.,4.8,1.,4.8,1.,4.8,0.,4.8
1980-11-14 03:19:19.660 ,3,0,0.,4.8,0.,4.8,0.,4.8,0.,4.8
1980-11-14 03:19:24.460 ,3,0,0.,4.8,0.,4.8,0.,4.8,0.,4.8
1980-11-14 03:19:29.260 ,3,0,0.,4.8,0.,4.8,0.,4.8,0.,4.8
1980-11-14 03:19:34.060 ,3,0,0.,4.8,0.,4.8,0.,4.8,1.,4.8
1980-11-14 03:19:38.860 ,3,0,0.,4.8,0.,4.8,0.,4.8,0.,4.8
1980-11-14 03:19:43.660 ,3,0,0.,4.8,0.,4.8,0.,4.8,0.,4.8
1980-11-14 03:19:48.460 ,2,0,0.,4.8,0.,4.8,0.,4.8,0.,4.8
1980-11-14 03:19:53.260 ,2,0,0.,4.8,0.,4.8,0.,4.8,0.,4.8
1980-11-14 03:19:58.060 ,2,0,0.,4.8,0.,4.8,0.,4.8,0.,4.8
1980-11-14 03:20:02.860 ,2,0,0.,4.8,0.,4.8,0.,4.8,0.,4.8
1980-11-14 03:20:07.660 ,2,0,0.,4.8,1.,4.8,0.,4.8,0.,4.8
1980-11-14 03:20:12.460 ,2,0,0.,4.8,1.,4.8,0.,4.8,0.,4.8
1980-11-14 03:20:17.260 ,2,0,0.,4.8,0.,4.8,0.,4.8,0.,4.8
1980-11-14 03:20:22.060 ,2,0,0.,4.8,1.,4.8,0.,4.8,0.,4.8
1980-11-14 03:20:26.860 ,2,0,0.,4.8,0.,4.8,0.,4.8,0.,4.8
1980-11-14 03:20:31.660 ,2,0,0.,4.8,0.,4.8,0.,4.8,0.,4.8
1980-11-14 03:20:36.460 ,1,0,0.,4.8,0.,4.8,0.,4.8,0.,4.8
1980-11-14 03:20:41.260 ,1,0,0.,4.8,0.,4.8,0.,4.8,0.,4.8
1980-11-14 03:20:46.060 ,1,0,0.,4.8,1.,4.8,1.,4.8,0.,4.8
1980-11-14 03:20:50.860 ,1,0,0.,4.8,0.,4.8,0.,4.8,0.,4.8
1980-11-14 03:20:55.660 ,1,0,0.,4.8,0.,4.8,0.,4.8,0.,4.8
1980-11-14 03:21:00.460 ,1,0,0.,4.8,0.,4.8,0.,4.8,0.,4.8
1980-11-14 03:21:05.260 ,1,0,0.,4.8,1.,4.8,0.,4.8,1.,4.8
1980-11-14 03:21:10.060 ,1,0,0.,4.8,0.,4.8,0.,4.8,0.,4.8
1980-11-14 03:21:14.860 ,1,0,0.,4.8,0.,4.8,0.,4.8,0.,4.8
1980-11-14 03:21:19.660 ,1,0,0.,4.8,1.,4.8,0.,4.8,0.,4.8
1980-11-14 03:21:24.460 ,0,0,0.,4.8,1.,4.8,0.,4.8,0.,4.8
1980-11-14 03:21:29.260 ,0,0,0.,4.8,1.,4.8,0.,4.8,0.,4.8
1980-11-14 03:21:34.060 ,0,0,0.,4.8,1.,4.8,0.,4.8,0.,4.8
1980-11-14 03:21:38.860 ,0,0,0.,4.8,1.,4.8,0.,4.8,0.,4.8
1980-11-14 03:21:43.660 ,0,0,0.,4.8,1.,4.8,2.,4.8,0.,4.8
1980-11-14 03:21:48.460 ,0,0,0.,4.8,0.,4.8,0.,4.8,0.,4.8
1980-11-14 03:21:53.260 ,0,0,0.,4.8,1.,4.8,0.,4.8,0.,4.8
1980-11-14 03:21:58.060 ,0,0,0.,4.8,1.,4.8,0.,4.8,0.,4.8
1980-11-14 03:22:02.860 ,0,0,0.,4.8,0.,4.8,0.,4.8,0.,4.8
1980-11-14 03:22:07.660 ,0,0,0.,4.8,1.,4.8,0.,4.8,0.,4.8
1980-11-14 03:22:12.460 ,0,0,0.,4.8,2.,4.8,0.,4.8,0.,4.8
1980-11-14 03:22:17.260 ,0,0,0.,4.8,0.,4.8,0.,4.8,1.,4.8
1980-11-14 03:22:22.060 ,0,0,0.,4.8,1.,4.8,0.,4.8,0.,4.8
1980-11-14 03:22:26.860 ,0,0,0.,4.8,2.,4.8,0.,4.8,0.,4.8
1980-11-14 03:22:31.660 ,0,0,0.,4.8,0.,4.8,0.,4.8,0.,4.8
1980-11-14 03:22:36.460 ,0,0,0.,4.8,1.,4.8,0.,4.8,0.,4.8
1980-11-14 03:22:41.260 ,0,0,0.,4.8,0.,4.8,0.,4.8,0.,4.8
1980-11-14 03:22:46.060 ,0,0,0.,4.8,2.,4.8,0.,4.8,0.,4.8
1980-11-14 03:22:50.860 ,0,0,0.,4.8,0.,4.8,0.,4.8,0.,4.8
1980-11-14 03:22:55.660 ,0,0,0.,4.8,1.,4.8,0.,4.8,2.,4.8
1980-11-14 03:23:00.460 ,1,0,0.,4.8,1.,4.8,0.,4.8,0.,4.8
1980-11-14 03:23:05.260 ,1,0,0.,4.8,0.,4.8,0.,4.8,0.,4.8
1980-11-14 03:23:10.060 ,1,0,0.,4.8,1.,4.8,0.,4.8,0.,4.8
1980-11-14 03:23:14.860 ,1,0,0.,4.8,1.,4.8,0.,4.8,0.,4.8
1980-11-14 03:23:19.660 ,1,0,0.,4.8,2.,4.8,0.,4.8,0.,4.8
1980-11-14 03:23:24.460 ,1,0,0.,4.8,1.,4.8,0.,4.8,0.,4.8
1980-11-14 03:23:29.260 ,1,0,0.,4.8,2.,4.8,0.,4.8,0.,4.8
1980-11-14 03:23:34.060 ,1,0,0.,4.8,0.,4.8,0.,4.8,0.,4.8
1980-11-14 03:23:38.860 ,1,0,0.,4.8,0.,4.8,0.,4.8,0.,4.8
1980-11-14 03:23:43.660 ,1,0,0.,4.8,0.,4.8,1.,4.8,0.,4.8
1980-11-14 03:23:48.460 ,2,0,0.,4.8,0.,4.8,0.,4.8,0.,4.8
1980-11-14 03:23:53.260 ,2,0,0.,4.8,1.,4.8,1.,4.8,0.,4.8
1980-11-14 03:23:58.060 ,2,0,0.,4.8,1.,4.8,0.,4.8,0.,4.8
1980-11-14 03:24:02.860 ,2,0,0.,4.8,1.,4.8,0.,4.8,0.,4.8
1980-11-14 03:24:07.660 ,2,0,0.,4.8,0.,4.8,0.,4.8,0.,4.8
1980-11-14 03:24:12.460 ,2,0,0.,4.8,0.,4.8,0.,4.8,0.,4.8
1980-11-14 03:24:17.260 ,2,0,0.,4.8,1.,4.8,0.,4.8,0.,4.8
1980-11-14 03:24:22.060 ,2,0,0.,4.8,0.,4.8,0.,4.8,0.,4.8
1980-11-14 03:24:26.860 ,2,0,0.,4.8,0.,4.8,0.,4.8,0.,4.8
1980-11-14 03:24:31.660 ,2,0,0.,4.8,0.,4.8,0.,4.8,0.,4.8
1980-11-14 03:24:36.460 ,3,0,0.,4.8,1.,4.8,0.,4.8,0.,4.8
1980-11-14 03:24:41.260 ,3,0,0.,4.8,2.,4.8,0.,4.8,1.,4.8
1980-11-14 03:24:46.060 ,3,0,0.,4.8,0.,4.8,0.,4.8,0.,4.8
1980-11-14 03:24:50.860 ,3,0,0.,4.8,0.,4.8,0.,4.8,0.,4.8
1980-11-14 03:24:55.660 ,3,0,0.,4.8,1.,4.8,1.,4.8,1.,4.8
1980-11-14 03:25:00.460 ,3,0,0.,4.8,1.,4.8,0.,4.8,0.,4.8
1980-11-14 03:25:05.260 ,3,0,0.,4.8,0.,4.8,1.,4.8,0.,4.8
1980-11-14 03:25:10.060 ,3,0,0.,4.8,0.,4.8,0.,4.8,0.,4.8
1980-11-14 03:25:14.860 ,3,0,0.,4.8,0.,4.8,0.,4.8,0.,4.8
1980-11-14 03:25:19.660 ,3,0,0.,4.8,0.,4.8,0.,4.8,1.,4.8
1980-11-14 03:25:24.460 ,4,0,0.,4.8,1.,4.8,0.,4.8,0.,4.8
1980-11-14 03:25:29.260 ,4,0,0.,4.8,0.,4.8,0.,4.8,0.,4.8
1980-11-14 03:25:34.060 ,4,0,0.,4.8,0.,4.8,1.,4.8,0.,4.8
1980-11-14 03:25:38.860 ,4,0,0.,4.8,1.,4.8,0.,4.8,0.,4.8
1980-11-14 03:25:43.660 ,4,0,0.,4.8,0.,4.8,0.,4.8,0.,4.8
1980-11-14 03:25:48.460 ,4,0,0.,4.8,1.,4.8,1.,4.8,0.,4.8
1980-11-14 03:25:53.260 ,4,0,0.,4.8,0.,4.8,0.,4.8,0.,4.8
1980-11-14 03:25:58.060 ,4,0,0.,4.8,0.,4.8,0.,4.8,0.,4.8
1980-11-14 03:26:02.860 ,4,0,0.,4.8,1.,4.8,0.,4.8,0.,4.8
1980-11-14 03:26:07.660 ,4,0,0.,4.8,0.,4.8,1.,4.8,0.,4.8
1980-11-14 03:26:12.460 ,5,0,0.,4.8,0.,4.8,0.,4.8,0.,4.8
1980-11-14 03:26:17.260 ,5,0,0.,4.8,0.,4.8,0.,4.8,1.,4.8
1980-11-14 03:26:22.060 ,5,0,0.,4.8,1.,4.8,0.,4.8,0.,4.8
1980-11-14 03:26:26.860 ,5,0,0.,4.8,0.,4.8,0.,4.8,0.,4.8
1980-11-14 03:26:31.660 ,5,0,0.,4.8,1.,4.8,1.,4.8,1.,4.8
1980-11-14 03:26:36.460 ,5,0,0.,4.8,0.,4.8,0.,4.8,0.,4.8
1980-11-14 03:26:41.260 ,5,0,0.,4.8,0.,4.8,0.,4.8,0.,4.8
1980-11-14 03:26:46.060 ,5,0,0.,4.8,0.,4.8,0.,4.8,0.,4.8
1980-11-14 03:26:50.860 ,5,0,0.,4.8,0.,4.8,1.,4.8,0.,4.8
1980-11-14 03:26:55.660 ,5,0,0.,4.8,0.,4.8,0.,4.8,0.,4.8
1980-11-14 03:27:00.460 ,6,0,0.,4.8,1.,4.8,0.,4.8,0.,4.8
1980-11-14 03:27:05.260 ,6,0,0.,4.8,0.,4.8,0.,4.8,0.,4.8
1980-11-14 03:27:10.060 ,6,0,0.,4.8,1.,4.8,0.,4.8,0.,4.8
1980-11-14 03:27:14.860 ,6,0,0.,4.8,0.,4.8,0.,4.8,0.,4.8
1980-11-14 03:27:19.660 ,6,0,0.,4.8,1.,4.8,0.,4.8,0.,4.8
1980-11-14 03:27:24.460 ,6,0,0.,4.8,1.,4.8,0.,4.8,0.,4.8
1980-11-14 03:27:29.260 ,6,0,0.,4.8,0.,4.8,0.,4.8,0.,4.8
1980-11-14 03:27:34.060 ,6,0,0.,4.8,0.,4.8,0.,4.8,0.,4.8
1980-11-14 03:27:38.860 ,6,0,0.,4.8,0.,4.8,0.,4.8,0.,4.8
1980-11-14 03:27:43.660 ,6,0,0.,4.8,0.,4.8,1.,4.8,0.,4.8
1980-11-14 03:27:48.460 ,7,0,0.,4.8,0.,4.8,0.,4.8,0.,4.8
1980-11-14 03:27:53.260 ,7,0,0.,4.8,0.,4.8,0.,4.8,0.,4.8
1980-11-14 03:27:58.060 ,7,0,0.,4.8,1.,4.8,0.,4.8,1.,4.8
1980-11-14 03:28:02.860 ,7,0,0.,4.8,0.,4.8,1.,4.8,0.,4.8
1980-11-14 03:28:07.660 ,7,0,0.,4.8,0.,4.8,0.,4.8,0.,4.8
1980-11-14 03:28:12.460 ,0,0,0.,4.8,1.,4.8,0.,4.8,0.,4.8
1980-11-14 03:28:17.260 ,0,0,0.,4.8,0.,4.8,1.,4.8,1.,4.8
1980-11-14 03:28:22.060 ,0,0,0.,4.8,0.,4.8,0.,4.8,2.,4.8
1980-11-14 03:28:26.860 ,0,0,0.,4.8,1.,4.8,0.,4.8,1.,4.8
1980-11-14 03:28:31.660 ,0,0,0.,4.8,1.,4.8,1.,4.8,1.,4.8
1980-11-14 03:32:30.460 ,0,0,,0,,0,,0,,0
1980-11-14 03:32:35.260 ,0,0,,0,,0,,0,,0
1980-11-14 03:32:40.060 ,0,0,,0,,0,,0,,0
1980-11-14 03:32:44.860 ,0,0,,0,,0,,0,,0
1980-11-14 03:32:49.660 ,0,0,0.,4.8,1.,4.8,0.,4.8,0.,4.8
1980-11-14 03:32:36.460 ,2,0,0.,4.8,1.,4.8,0.,4.8,0.,4.8
1980-11-14 03:32:41.260 ,2,0,0.,4.8,0.,4.8,0.,4.8,0.,4.8
1980-11-14 03:32:46.060 ,2,0,0.,4.8,2.,4.8,0.,4.8,0.,4.8
1980-11-14 03:32:50.860 ,2,0,0.,4.8,0.,4.8,1.,4.8,0.,4.8
1980-11-14 03:32:55.660 ,2,0,0.,4.8,0.,4.8,0.,4.8,0.,4.8
1980-11-14 03:33:00.460 ,2,0,0.,4.8,1.,4.8,0.,4.8,0.,4.8
1980-11-14 03:33:05.260 ,2,0,0.,4.8,0.,4.8,0.,4.8,0.,4.8
1980-11-14 03:33:10.060 ,2,0,0.,4.8,0.,4.8,0.,4.8,0.,4.8
1980-11-14 03:33:14.860 ,2,0,0.,4.8,1.,4.8,0.,4.8,0.,4.8
1980-11-14 03:33:19.660 ,2,0,0.,4.8,0.,4.8,0.,4.8,0.,4.8
1980-11-14 03:33:24.460 ,1,0,0.,4.8,0.,4.8,0.,4.8,0.,4.8
1980-11-14 03:33:29.260 ,1,0,0.,4.8,0.,4.8,1.,4.8,0.,4.8
1980-11-14 03:33:34.060 ,1,0,0.,4.8,1.,4.8,0.,4.8,0.,4.8
1980-11-14 03:33:38.860 ,1,0,0.,4.8,2.,4.8,1.,4.8,2.,4.8
1980-11-14 03:33:43.660 ,1,0,0.,4.8,1.,4.8,0.,4.8,0.,4.8
1980-11-14 03:33:48.460 ,1,0,0.,4.8,0.,4.8,0.,4.8,0.,4.8
1980-11-14 03:33:53.260 ,1,0,0.,4.8,2.,4.8,0.,4.8,0.,4.8
1980-11-14 03:33:58.060 ,1,0,0.,4.8,3.,4.8,1.,4.8,0.,4.8
1980-11-14 03:34:02.860 ,1,0,0.,4.8,0.,4.8,0.,4.8,0.,4.8
1980-11-14 03:34:07.660 ,1,0,0.,4.8,1.,4.8,0.,4.8,0.,4.8
1980-11-14 03:34:12.460 ,0,0,0.,4.8,2.,4.8,0.,4.8,0.,4.8
1980-11-14 03:34:17.260 ,0,0,0.,4.8,0.,4.8,0.,4.8,0.,4.8
1980-11-14 03:34:22.060 ,0,0,0.,4.8,0.,4.8,0.,4.8,0.,4.8
1980-11-14 03:34:26.860 ,0,0,0.,4.8,0.,4.8,1.,4.8,0.,4.8
1980-11-14 03:34:31.660 ,0,0,0.,4.8,0.,4.8,0.,4.8,0.,4.8
1980-11-14 03:34:36.460 ,0,0,0.,4.8,0.,4.8,1.,4.8,0.,4.8
1980-11-14 03:34:41.260 ,0,0,0.,4.8,1.,4.8,0.,4.8,0.,4.8
1980-11-14 03:34:46.060 ,0,0,0.,4.8,0.,4.8,0.,4.8,0.,4.8
1980-11-14 03:34:50.860 ,0,0,0.,4.8,0.,4.8,0.,4.8,0.,4.8
1980-11-14 03:34:55.660 ,0,0,0.,4.8,0.,4.8,0.,4.8,0.,4.8
1980-11-14 03:35:00.460 ,0,0,0.,4.8,0.,4.8,0.,4.8,0.,4.8
1980-11-14 03:35:05.260 ,0,0,0.,4.8,1.,4.8,0.,4.8,0.,4.8
1980-11-14 03:35:10.060 ,0,0,0.,4.8,0.,4.8,0.,4.8,0.,4.8
1980-11-14 03:35:14.860 ,0,0,0.,4.8,1.,4.8,1.,4.8,0.,4.8
1980-11-14 03:35:19.660 ,0,0,0.,4.8,1.,4.8,1.,4.8,0.,4.8
1980-11-14 03:35:24.460 ,0,0,0.,4.8,0.,4.8,0.,4.8,0.,4.8
1980-11-14 03:35:29.260 ,0,0,0.,4.8,0.,4.8,0.,4.8,0.,4.8
1980-11-14 03:35:34.060 ,0,0,0.,4.8,0.,4.8,0.,4.8,0.,4.8
1980-11-14 03:35:38.860 ,0,0,0.,4.8,1.,4.8,0.,4.8,0.,4.8
1980-11-14 03:35:43.660 ,0,0,0.,4.8,0.,4.8,0.,4.8,0.,4.8
1980-11-14 03:35:48.460 ,1,0,0.,4.8,0.,4.8,1.,4.8,0.,4.8
1980-11-14 03:35:53.260 ,1,0,0.,4.8,2.,4.8,0.,4.8,1.,4.8
1980-11-14 03:35:58.060 ,1,0,0.,4.8,0.,4.8,0.,4.8,0.,4.8
1980-11-14 03:36:02.860 ,1,0,0.,4.8,0.,4.8,0.,4.8,0.,4.8
1980-11-14 03:36:07.660 ,1,0,0.,4.8,0.,4.8,0.,4.8,0.,4.8
1980-11-14 03:36:12.460 ,1,0,0.,4.8,0.,4.8,0.,4.8,0.,4.8
1980-11-14 03:36:17.260 ,1,0,0.,4.8,2.,4.8,0.,4.8,0.,4.8
1980-11-14 03:36:22.060 ,1,0,0.,4.8,2.,4.8,0.,4.8,0.,4.8
1980-11-14 03:36:26.860 ,1,0,0.,4.8,0.,4.8,0.,4.8,0.,4.8
1980-11-14 03:36:31.660 ,1,0,0.,4.8,0.,4.8,0.,4.8,0.,4.8
1980-11-14 03:36:36.460 ,2,0,0.,4.8,0.,4.8,0.,4.8,0.,4.8
1980-11-14 03:36:41.260 ,2,0,0.,4.8,0.,4.8,2.,4.8,1.,4.8
1980-11-14 03:36:46.060 ,2,0,0.,4.8,2.,4.8,0.,4.8,0.,4.8
1980-11-14 03:36:50.860 ,2,0,0.,4.8,0.,4.8,0.,4.8,0.,4.8
1980-11-14 03:36:55.660 ,2,0,0.,4.8,0.,4.8,0.,4.8,0.,4.8
1980-11-14 03:37:00.460 ,2,0,0.,4.8,1.,4.8,0.,4.8,0.,4.8
1980-11-14 03:37:05.260 ,2,0,0.,4.8,0.,4.8,1.,4.8,0.,4.8
1980-11-14 03:37:10.060 ,2,0,0.,4.8,1.,4.8,0.,4.8,1.,4.8
1980-11-14 03:37:14.860 ,2,0,0.,4.8,0.,4.8,1.,4.8,0.,4.8
1980-11-14 03:37:19.660 ,2,0,0.,4.8,0.,4.8,0.,4.8,0.,4.8
1980-11-14 03:37:24.460 ,3,0,0.,4.8,1.,4.8,0.,4.8,0.,4.8
1980-11-14 03:37:29.260 ,3,0,0.,4.8,0.,4.8,0.,4.8,0.,4.8
1980-11-14 03:37:34.060 ,3,0,0.,4.8,1.,4.8,0.,4.8,0.,4.8
1980-11-14 03:37:38.860 ,3,0,0.,4.8,0.,4.8,0.,4.8,0.,4.8
1980-11-14 03:37:43.660 ,3,0,0.,4.8,1.,4.8,0.,4.8,0.,4.8
1980-11-14 03:37:48.460 ,3,0,0.,4.8,1.,4.8,0.,4.8,0.,4.8
1980-11-14 03:37:53.260 ,3,0,0.,4.8,1.,4.8,0.,4.8,0.,4.8
1980-11-14 03:37:58.060 ,3,0,0.,4.8,1.,4.8,0.,4.8,0.,4.8
1980-11-14 03:38:02.860 ,3,0,0.,4.8,0.,4.8,0.,4.8,0.,4.8
1980-11-14 03:38:07.660 ,3,0,0.,4.8,0.,4.8,0.,4.8,0.,4.8
1980-11-14 03:38:12.460 ,4,0,0.,4.8,0.,4.8,0.,4.8,1.,4.8
1980-11-14 03:38:17.260 ,4,0,0.,4.8,1.,4.8,0.,4.8,0.,4.8
1980-11-14 03:38:22.060 ,4,0,0.,4.8,1.,4.8,0.,4.8,0.,4.8
1980-11-14 03:38:26.860 ,4,0,0.,4.8,1.,4.8,0.,4.8,0.,4.8
1980-11-14 03:38:31.660 ,4,0,0.,4.8,1.,4.8,1.,4.8,0.,4.8
1980-11-14 03:38:36.460 ,4,0,0.,4.8,1.,4.8,0.,4.8,0.,4.8
1980-11-14 03:38:41.260 ,4,0,0.,4.8,0.,4.8,0.,4.8,0.,4.8
1980-11-14 03:38:46.060 ,4,0,0.,4.8,1.,4.8,1.,4.8,0.,4.8
1980-11-14 03:38:50.860 ,4,0,0.,4.8,0.,4.8,0.,4.8,0.,4.8
1980-11-14 03:38:55.660 ,4,0,0.,4.8,0.,4.8,0.,4.8,0.,4.8
1980-11-14 03:39:00.460 ,5,0,0.,4.8,0.,4.8,1.,4.8,0.,4.8
1980-11-14 03:39:05.260 ,5,0,0.,4.8,0.,4.8,0.,4.8,0.,4.8
1980-11-14 03:39:10.060 ,5,0,0.,4.8,0.,4.8,0.,4.8,0.,4.8